Lid_Strength_Index
2 2 2 2 2 2 2 2 2 1 1 0 0 1 1 1 2 7 9 4 4 2 4 7 8 8 8 9 10 9 14 17 17 16 18 16 19 18 17 18 18 18 18 18 16
2 3 3 2 2 2 2 2 1 1 0 0 1 2 2 3 8 8 4 1 2 4 9 9 10 10 12 11 11 14 16 17 15 15 17 17 18 18 19 19 19 19 17 18 17
3 3 3 3 3 2 2 1 1 1 1 0 0 2 2 6 10 10 3 2 3 6 8 9 10 11 13 13 12 13 18 15 14 14 16 18 18 18 19 21 20 20 19 18 18
4 3 3 3 3 2 2 2 1 1 1 1 1 2 4 10 16 11 4 2 3 7 8 9 10 13 15 17 15 17 15 15 15 14 16 18 18 20 21 20 18 18 18 18 18
4 4 3 3 3 3 2 2 2 2 2 2 2 3 10 15 14 10 5 5 7 8 10 11 13 13 16 16 15 17 16 16 16 15 17 17 19 19 20 18 17 17 17 18 18
4 4 4 3 3 3 3 3 3 3 2 3 3 6 13 17 12 12 9 7 8 9 10 10 12 12 14 15 16 14 15 15 14 15 15 17 19 17 18 16 16 16 17 17 17
4 4 4 4 4 3 3 3 4 4 3 3 5 11 14 16 13 13 11 9 8 8 10 10 10 11 12 14 12 13 16 15 14 14 15 14 18 20 16 16 17 16 16 17 16
4 4 4 4 4 4 3 3 4 4 4 4 6 13 16 13 13 13 13 12 12 10 9 9 9 11 13 12 13 14 15 17 16 14 14 15 19 17 15 16 16 16 16 16 16
5 5 4 4 4 4 4 4 5 5 6 8 13 14 17 11 14 14 14 14 13 13 13 11 12 13 15 16 17 17 19 18 17 16 16 16 18 17 15 16 17 16 16 16 16
5 5 5 4 4 4 5 5 6 9 12 13 14 16 16 17 15 14 14 14 15 15 14 15 17 18 19 18 21 19 19 19 20 18 17 17 17 16 16 16 17 17 17 17 16
5 5 5 4 4 5 11 14 14 15 16 19 19 19 17 15 15 15 15 15 16 17 20 18 19 22 21 19 19 19 20 20 19 17 19 19 19 17 16 16 17 17 17 17 17
5 5 5 5 5 8 14 16 17 16 18 17 18 18 16 17 18 16 15 17 18 20 20 19 21 20 19 18 18 19 20 21 19 18 19 20 20 18 16 17 17 17 17 17 18
6 6 5 5 7 13 14 15 12 14 18 18 18 18 18 17 19 18 17 19 20 21 21 21 20 19 19 20 19 20 20 20 20 18 19 19 20 20 18 18 18 18 17 17 17
6 6 6 6 11 15 16 14 12 13 20 19 19 18 17 18 19 17 17 19 20 22 22 22 20 19 20 20 20 20 19 18 18 20 24 20 23 21 19 20 19 17 18 18 17
7 6 7 9 15 15 15 12 12 14 25 19 19 16 18 19 19 19 18 18 21 21 22 23 23 21 21 20 19 20 18 19 18 21 23 23 26 21 20 19 18 18 17 18 17
7 7 8 12 14 14 12 13 14 20 25 20 19 20 20 19 20 19 19 18 20 21 21 23 22 22 21 19 18 18 20 20 21 22 28 26 25 21 21 19 18 17 17 17 17
7 8 11 12 15 13 14 15 20 23 19 20 21 20 21 21 21 20 21 22 21 23 23 22 23 22 21 21 19 19 22 27 26 28 26 24 26 20 19 19 18 17 17 17 17
8 10 12 13 13 14 15 18 25 23 21 20 21 21 22 22 22 21 22 22 23 23 26 25 23 23 21 23 22 21 23 25 30 28 27 26 26 19 18 18 18 17 17 17 17
11 16 15 14 14 15 17 25 22 21 19 21 22 23 23 22 23 23 23 23 22 21 22 26 24 23 21 22 22 23 24 24 32 40 31 26 23 20 19 19 19 19 18 18 18
16 17 18 14 14 16 20 21 21 19 20 20 20 21 23 24 24 24 23 21 21 21 22 22 25 23 23 22 22 23 22 25 28 29 30 26 27 21 19 18 19 19 18 17 17
16 16 17 15 15 18 23 23 20 19 19 19 20 21 21 21 22 24 22 21 21 22 21 22 23 25 23 25 25 25 25 26 26 27 29 30 23 20 19 17 18 18 18 17 16
16 16 15 15 20 29 25 22 17 20 19 19 20 19 20 21 22 23 22 20 20 20 21 20 24 29 25 26 24 24 24 24 25 27 29 28 24 19 18 18 18 17 17 17 16
16 16 14 14 19 23 22 20 19 20 19 20 19 19 20 20 20 21 22 21 20 19 20 20 25 29 25 25 25 26 24 24 28 28 29 27 21 20 20 19 19 18 17 17 16
15 17 17 16 17 19 19 19 19 19 19 19 19 20 20 21 20 19 21 20 20 20 17 18 25 23 21 22 24 27 26 24 25 30 24 23 20 17 17 18 17 18 18 17 17
14 16 17 20 19 19 19 19 19 19 19 19 20 19 19 20 21 22 21 21 21 19 19 20 24 26 26 25 25 24 23 24 25 22 23 19 19 17 16 16 15 15 16 18 17
16 17 17 18 18 19 18 19 18 18 19 20 20 19 19 19 19 20 19 20 19 22 21 21 24 27 23 26 24 23 21 22 23 21 21 19 19 15 15 17 17 16 17 17 16
16 16 15 16 18 19 19 18 18 17 17 17 18 17 17 17 18 18 18 18 18 20 21 23 23 24 23 27 26 25 21 20 21 21 20 22 18 15 16 16 15 15 17 16 16